N12KBM MMGL-MMGL

Flight info

Callsign N12KBM
Flight time 0h 6m
Altitude 1500
Route CIRCUITO DE TRAFICO
Aircraft P28B/L-DOV/C

Departure

Time 2026-05-07 03:19
Airport Guadalajara International Airport (MMGL)

Arrival

Time 2026-05-07 03:26
Airport Guadalajara International Airport (MMGL)
Time Latitude Longitude Altitude Speed Heading
2026-05-07 03:08 20.52035 -103.31554 5015 ft 0 kts 119°
2026-05-07 03:13 20.52026 -103.31530 5016 ft 14 kts 109°
2026-05-07 03:13 20.52007 -103.31425 5016 ft 13 kts 83°
2026-05-07 03:13 20.52073 -103.31385 5016 ft 15 kts 343°
2026-05-07 03:14 20.52088 -103.31350 5016 ft 15 kts 124°
2026-05-07 03:14 20.52029 -103.31234 5017 ft 19 kts 108°
2026-05-07 03:14 20.51916 -103.30929 5016 ft 24 kts 114°
2026-05-07 03:15 20.51877 -103.30773 5015 ft 20 kts 51°
2026-05-07 03:15 20.51928 -103.30735 5015 ft 7 kts 32°
2026-05-07 03:15 20.51992 -103.30695 5014 ft 14 kts 28°
2026-05-07 03:15 20.52022 -103.30621 5014 ft 13 kts 87°
2026-05-07 03:16 20.52026 -103.30510 5014 ft 17 kts 83°
2026-05-07 03:16 20.52035 -103.30416 5014 ft 14 kts 88°
2026-05-07 03:16 20.52048 -103.30299 5014 ft 18 kts 85°
2026-05-07 03:16 20.52056 -103.30205 5014 ft 0 kts 83°
2026-05-07 03:17 20.52081 -103.30218 5014 ft 3 kts 287°
2026-05-07 03:18 20.52086 -103.30234 5014 ft 15 kts 291°
2026-05-07 03:18 20.52185 -103.30518 5015 ft 65 kts 289°
2026-05-07 03:18 20.52366 -103.31045 5124 ft 83 kts 290°
2026-05-07 03:18 20.52566 -103.31612 5365 ft 81 kts 294°
2026-05-07 03:19 20.52845 -103.32165 5543 ft 88 kts 299°
2026-05-07 03:19 20.53248 -103.32627 5738 ft 90 kts 347°
2026-05-07 03:19 20.53747 -103.32221 5706 ft 116 kts 80°
2026-05-07 03:19 20.53471 -103.31351 5560 ft 139 kts 116°
2026-05-07 03:20 20.53041 -103.30375 5513 ft 147 kts 116°
2026-05-07 03:20 20.52586 -103.29381 5498 ft 150 kts 117°
2026-05-07 03:20 20.52063 -103.28482 5706 ft 138 kts 126°
2026-05-07 03:20 20.51473 -103.27649 5717 ft 141 kts 138°
2026-05-07 03:21 20.50619 -103.27712 5247 ft 155 kts 250°
2026-05-07 03:21 20.51052 -103.28546 5251 ft 119 kts 314°
2026-05-07 03:21 20.51391 -103.29251 5097 ft 102 kts 292°
2026-05-07 03:21 20.51656 -103.29871 5026 ft 88 kts 293°
2026-05-07 03:22 20.51878 -103.30384 5035 ft 78 kts 294°
2026-05-07 03:22 20.52113 -103.30930 5244 ft 80 kts 294°
2026-05-07 03:22 20.52349 -103.31474 5455 ft 82 kts 292°
2026-05-07 03:22 20.52622 -103.32015 5618 ft 90 kts 300°
2026-05-07 03:23 20.52873 -103.32673 5665 ft 104 kts 286°
2026-05-07 03:23 20.53344 -103.33162 5803 ft 107 kts
2026-05-07 03:23 20.53415 -103.32424 5739 ft 119 kts 109°
2026-05-07 03:23 20.53133 -103.31581 5807 ft 124 kts 109°
2026-05-07 03:24 20.52863 -103.30706 5893 ft 123 kts 108°
2026-05-07 03:24 20.52604 -103.29814 5869 ft 131 kts 107°
2026-05-07 03:24 20.52270 -103.28864 5706 ft 140 kts 112°
2026-05-07 03:24 20.51879 -103.27912 5635 ft 139 kts 114°
2026-05-07 03:25 20.51209 -103.27311 5557 ft 136 kts 201°
2026-05-07 03:25 20.51006 -103.28259 5411 ft 141 kts 268°
2026-05-07 03:25 20.51406 -103.29268 5081 ft 149 kts 295°
2026-05-07 03:25 20.51723 -103.30042 5014 ft 88 kts 294°
2026-05-07 03:26 20.51887 -103.30403 5013 ft 8 kts 313°